Regional Weather Roundup
Issued by NWS

Home | Current Version | Previous Version | Graphics & Text | Print | Product List | Glossary On
Versions: 1 2 3 4 5 6 7 8 9 10 11 12 13 14 15 16 17 18 19 20 21 22 23 24 25 26 27 28 29 30 31 32 33 34 35 36 37 38 39 40 41 42 43 44 45 46 47 48 49 50
000
ASUS43 KOAX 230310
RWRNE

WEATHER ROUNDUP FOR NEBRASKA
NATIONAL WEATHER SERVICE OMAHA NE
1000 PM CDT MON SEP 22 2014

NOTES: SATELLITE DATA IS BEING USED TO AUGMENT CLOUD COVER ABOVE
       12000 FEET.
       "FAIR" INDICATES FEW OR NO CLOUDS BELOW 12,000 FEET WITH NO
       SIGNIFICANT WEATHER AND/OR OBSTRUCTIONS TO VISIBILITY.

  * THESE STATIONS DO NOT REPORT WEATHER SUCH AS RAIN...SNOW OR FOG.

NEZ001>004-019>022-054>056-230400-
NEBRASKA PANHANDLE

CITY           SKY/WX    TMP DP  RH WIND       PRES   REMARKS
SCOTTSBLUFF    PTCLDY    59  58  96 SE8       30.05S
ALLIANCE       CLEAR     57  53  86 S12       30.04S
CHADRON        MOCLDY    63  57  81 S8        29.99F
KIMBALL        MOCLDY    58  56  92 CALM      30.09F
SIDNEY         PTCLDY    62  54  74 S7        30.08R
$$

NEZ057>060-069>072-079>082-230400-
SOUTHWEST NEBRASKA

CITY           SKY/WX    TMP DP  RH WIND       PRES   REMARKS
NORTH PLATTE   CLOUDY    58  54  86 SE12      30.07F
IMPERIAL       CLOUDY    64  53  67 SE21G30   30.05F
LEXINGTON      CLOUDY    60  55  85 E10       30.13S
MCCOOK         TSTM      61  53  75 NW14G30   30.16R
OGALLALA       MOCLDY    63  53  71 E5        30.05S
$$

NEZ005>010-023>029-035>040-094-230400-
NORTH CENTRAL NEBRASKA

CITY           SKY/WX    TMP DP  RH WIND       PRES   REMARKS
VALENTINE      CLOUDY    60  56  86 S12       30.05F
AINSWORTH      RAIN      57  56  94 S12       30.09F
BROKEN BOW     CLOUDY    59  56  89 SE14G23   30.11F
O`NEILL        LGT RAIN  64  55  71 S12       30.14S
ORD            LGT RAIN  59  56  89 SE7       30.14R
THEDFORD       CLOUDY    60  54  81 SE12      30.08F
$$

NEZ041-046>049-061>064-073>077-083>087-230400-
SOUTH CENTRAL NEBRASKA

CITY           SKY/WX    TMP DP  RH WIND       PRES   REMARKS
GRAND ISLAND   CLOUDY    66  48  52 S10       30.17R
AURORA         CLOUDY    64  47  55 SE8       30.16F
HASTINGS       CLOUDY    64  46  52 SE8       30.16S
HEBRON         MOCLDY    61  49  64 SE7       30.17F
HOLDREGE       RAIN      61  53  75 SE12      30.14F
KEARNEY *      CLOUDY    59  54  82 CALM      30.17S
YORK           CLOUDY    64  48  55 S9        30.17F
$$

NEZ011>018-030>034-042>045-230400-
NORTHEAST NEBRASKA

CITY           SKY/WX    TMP DP  RH WIND       PRES   REMARKS
NORFOLK        CLOUDY    65  50  58 SE10      30.15F
ALBION         CLOUDY    64  50  60 SE7       30.14F
BLAIR          MOCLDY    62  51  66 S5        30.19R
COLUMBUS *     CLOUDY    63  50  63 S7        30.17F
FREMONT        CLOUDY    64  49  58 SE7       30.19S
TEKAMAH        PTCLDY    56  51  84 S3        30.18R
WAYNE          MOCLDY    60  51  71 S7        30.17S
$$

NEZ050>053-065>068-078-088>093-230400-
SOUTHEAST NEBRASKA

CITY           SKY/WX    TMP DP  RH WIND       PRES   REMARKS
LINCOLN        CLOUDY    62  52  69 S8        30.20R
OMAHA EPPLEY   MOCLDY    65  49  56 S7        30.19S
BEATRICE       MOCLDY    62  50  63 S5        30.20R
FALLS CITY     MOCLDY    62  52  69 S7        30.20S
NEBRASKA CITY    N/A     59  47  63 S3        30.20S
PLATTSMOUTH    MOCLDY    61  48  63 SE5       30.20R
$$

NEZ044-045-051>053-067-230400-
OMAHA AREA

CITY           SKY/WX    TMP DP  RH WIND       PRES   REMARKS
OMAHA EPPLEY   MOCLDY    65  49  56 S7        30.19S
BLAIR          MOCLDY    62  51  66 S5        30.19R
FREMONT        CLOUDY    64  49  58 SE7       30.19S
MILLARD        MOCLDY    63  53  69 CALM      30.19R
OFFUTT AFB     MOCLDY    59  58  94 SE5       30.19S
PLATTSMOUTH    MOCLDY    61  48  63 SE5       30.20R
WAHOO          FAIR      60  51  71 SE5       30.19R
$$



USA.gov is the U.S. government's official web portal to all federal, state and local government web resources and services.